Regional Weather Roundup
Issued by NWS Upton, NY

Current Version | Previous Version | Graphics & Text | Print | Product List | Glossary Off
Versions: 1 2 3 4 5 6 7 8 9 10 11 12 13 14 15 16 17 18 19 20 21 22 23 24 25 26 27 28 29 30 31 32 33 34 35 36 37 38 39 40 41 42 43 44 45 46 47 48 49 50

000
ASUS41 KOKX 190505
RWROKX

REGIONAL WEATHER ROUNDUP
NATIONAL WEATHER SERVICE NEW YORK NY
1200 AM EST FRI DEC 19 2014

NOTE: "FAIR" INDICATES FEW OR NO CLOUDS BELOW 12,000 FEET WITH NO
SIGNIFICANT WEATHER AND/OR OBSTRUCTIONS TO VISIBILITY.

NYZ071-072-176-178-NJZ106-104-190600-
NEW YORK CITY METRO AREA


CITY           SKY/WX    TMP DP  RH WIND       PRES   REMARKS
CENTRAL PARK   MOCLDY    37  25  61 W6        29.99S WCI  32
LAGUARDIA APRT PTCLDY    38  28  67 NW12      29.97S WCI  30
KENNEDY INTL   MOCLDY    39  26  59 NW12      29.98S WCI  32
NEWARK/LIBERTY MOCLDY    37  27  67 W10       29.98S WCI  30
BRNX BOT. GARD   N/A    N/A N/A N/A NW10      29.97F
TETERBORO      MOCLDY    36  26  67 NW3       29.97S
$$

NYZ177-179-078>081-190600-
LONG ISLAND NEW YORK

CITY           SKY/WX    TMP DP  RH WIND       PRES   REMARKS
FARMINGDALE    PTCLDY    35  26  69 NW5       29.96F WCI  31
ISLIP          PTCLDY    31  25  78 W3        29.94S
SHIRLEY        CLOUDY    33  27  78 W5        29.95F WCI  29
WESTHAMPTON    CLOUDY    30  25  81 W6        29.96S WCI  24
MONTAUK POINT    N/A     39  27  62 NW14G21   29.93F WCI  31
$$

NYZ052-065-067-190600-
HUDSON VALLEY

CITY           SKY/WX    TMP DP  RH WIND       PRES   REMARKS
WHITE PLAINS   PTCLDY    34  25  69 NW10      29.92F WCI  26
NEWBURGH       NOT AVBL
MONTGOMERY     CLOUDY    36  25  64 NW8       29.95R WCI  30
POUGHKEEPSIE   CLOUDY    37  25  61 W6        29.95F WCI  32
ALBANY         CLOUDY    33  25  72 W15       29.95S WCI  23
$$

NJZ001-105-106-008-010-013-015-019>022-104-190600-
NEW JERSEY

CITY           SKY/WX    TMP DP  RH WIND       PRES   REMARKS
NEWARK/LIBERTY MOCLDY    37  27  67 W10       29.98S WCI  30
TETERBORO      MOCLDY    36  26  67 NW3       29.97S
CALDWELL       MOCLDY    36  25  64 W10       29.97F WCI  28
MORRISTOWN       N/A     39  27  60 NW8       29.98S WCI  34
SOMERVILLE     CLOUDY    38  25  59 NW8       29.98S WCI  32
SUSSEX         CLOUDY    36  26  67 NW5       29.97F WCI  32
ANDOVER          N/A     35  25  66 VRB5      29.97F WCI  31
TRENTON        CLOUDY    36  25  64 W7        30.01S WCI  30
MILLVILLE      CLOUDY    36  25  64 W10       30.04F WCI  28
ATLANTIC CITY  CLOUDY    36  26  67 W12       30.02F WCI  28
WRIGHTSTOWN    CLOUDY    36  26  68 NW9       29.99F WCI  29
TOMS RIVER     CLOUDY    36  27  69 W6        30.00S WCI  31
BELMAR         CLOUDY    36  23  60 W9        29.98S WCI  29
$$

PAZ047>061-062-071-190600-
EASTERN PENNSYLVANIA

CITY           SKY/WX    TMP DP  RH WIND       PRES   REMARKS
PHILADELPHIA   CLOUDY    37  25  61 NW10      30.05S WCI  30
ALLENTOWN      CLOUDY    36  26  67 W8        30.01S WCI  30
SCRANTON       CLOUDY    34  23  64 W7        29.98S WCI  28
$$

CTZ002-004>006-009-010-012-RIZ004-006-007-MAZ004-011-015-190600-
SOUTHERN NEW ENGLAND
 IN CT

CITY           SKY/WX    TMP DP  RH WIND       PRES   REMARKS
BRADLEY INTL   CLOUDY    36  25  64 NW12      29.91F WCI  28
HARTFORD       CLOUDY    36  25  64 NW9       29.93S WCI  29
DANBURY        PTCLDY    34  23  64 NW3       29.94F
WTRBRY/OXFORD  CLOUDY    30  21  69 NW3       29.92F
BRIDGEPORT     CLOUDY    36  28  73 W7        29.95F WCI  30
MERIDEN        CLOUDY    36  25  64 NW7       29.94S WCI  30
NEW HAVEN      CLEAR     38  27  64 VRB5      29.94F WCI  34
CHESTER        CLOUDY    36  27  69 NW8       29.92S WCI  29
GROTON         CLOUDY    35  27  72 NW8       29.92S WCI  29
WILLIMANTIC    PTCLDY    35  25  66 NW6       29.91S WCI  30

 IN RI

CITY           SKY/WX    TMP DP  RH WIND       PRES   REMARKS
PROVIDENCE     CLOUDY    37  26  64 W8        29.89F WCI  31
BLOCK ISLAND   MOCLDY    37  25  60 NW14G20   29.90F WCI  29
WESTERLY       CLOUDY    35  26  69 W5        29.92S WCI  31

 IN MA

CITY           SKY/WX    TMP DP  RH WIND       PRES   REMARKS
BOSTON         CLOUDY    37  26  64 W13G18    29.87R WCI  29
WORCESTER      CLOUDY    31  26  82 W8        29.84S WCI  23
WESTFIELD      CLOUDY    36  24  62 NW8       29.91R WCI  30
PROVINCETOWN   MOCLDY    39  27  60 NW18G26   29.85R WCI  30
NANTUCKET      CLEAR     36  28  73 W8        29.86S WCI  30
$$

ANZ330-335-338-340-345-350-353-355-190600-
COASTAL MARINE OBSERVATIONS


STATION/POSITION TIME  SKY/WX   TEMP    WIND        PRES    VSBY  WAVE
                                AIR SEA DIR/SP/G                  HT/PER
                 (UTC)          (F)     (DEG/KT/KT) (MB)    (MI)  (FT/S)
NY HARB ENTRANCE 0500            40 47  300/ 17/ 21 1015.0          2/ 3
4S FIRE IS       0500               47                N/A           2/ 3
20S FIRE ISLAND  0400            42 49              1015.3          3/ 5
23SW MTP         0500                                 N/A           4/ 6
HUDSON CANYON    0500            42 55  310/ 17/ 21 1013.9          5/ 6
EXECUTION ROCKS  0500            38 42  310/  8/ 12   N/A
WESTERN LI SOUND 0500            38     290/  8/ 12   N/A           0
CENTRAL LI SOUND 0400            38 44  300/ 14/ 17   N/A           2/ 4
EASTERN LI SOUND NOT AVBL
ROBBINS REEF     0500            38     230/  6/  8 1013.8
$$


>>>>>>>>>>>>>>>>>>>>>>>>>>>> KEY <<<<<<<<<<<<<<<<<<<<<<<<<<<
>                                                          <
>     SKY/WX - SKY CONDITION/PRESENT WEATHER               <
>     TMP    - TEMPERATURE IN FAHRENHEIT                   <
>     DP     - DEWPOINT IN FAHRENHEIT                      <
>     RH     - RELATIVE HUMIDITY IN PERCENT                <
>     WIND   - DIRECTION AND SPEED IN MPH                  <
>     PRES   - MEAN SEA LEVEL PRESSURE IN INCHES OF HG     <
>     WCI    - WIND CHILL INDEX                            <
>     VSB    - VISIBILITY IN MILES                         <
>     HX     - HEAT INDEX                                  <
>     TC     - TEMPERATURE IN CELSIUS                      <
>     VRB    - VARIABLE WIND DIRECTION                     <
>                                                          <
>>>>>>>>>>>>>>>>>>>>>>>>>>>> KEY <<<<<<<<<<<<<<<<<<<<<<<<<<<




USA.gov is the U.S. government's official web portal to all federal, state and local government web resources and services.